Location: Bazinghen
(50.8246°N, 1.6616°E)
Time: 01:16:51
(UTC+00:00)

Resurs 01 Rocket - Pass Details

Date: 09 April 2020
Orbit: 635 x 644 km, 98.0° (Epoch: 30 May)

Event Time Altitude Azimuth Distance (km) Brightness Sun altitude
Exits shadow 19:17:43 - 128° (SE) 2,271 3.8 -6.6°
Reaches altitude 10° 19:18:24 10° 124° (SE) 2,023 3.6 -6.7°
Maximum altitude 19:22:13 29° 64° (ENE) 1,165 2.6 -7.2°
Drops below altitude 10° 19:26:03 10° 4° (N) 2,040 4.5 -7.8°
Sets 19:28:28 0° 354° (N) 2,956 5.5 -8.1°
